• In Belgium
  • List of Countries
  • For 7 days
  • Water Temperature
  • Satellite Maps
  • Weather Map
  • Weather Widgets
  • user-avatar
    Login

    Hourly Weather Sokode

    Today, 18 July, Wednesday

    Time Temperature Precipitation Wind Pressure Humidity
    00:00 +23°C° 0 mm 1 mps 727 mmHg 96%
    01:00 +23°C° 0.3 mm 1 mps 727 mmHg 96%
    02:00 +23°C° 0.3 mm 1 mps 727 mmHg 97%
    03:00 +23°C° 0.3 mm 1 mps 726 mmHg 97%
    04:00 +23°C° 0 mm 1 mps 727 mmHg 97%
    05:00 +22°C° 0 mm 1 mps 727 mmHg 97%
    06:00 +23°C° 0 mm 1 mps 727 mmHg 97%
    07:00 +24°C° 0.1 mm 2 mps 727 mmHg 93%
    08:00 +25°C° 0.1 mm 2 mps 727 mmHg 90%
    09:00 +26°C° 0.1 mm 2 mps 728 mmHg 86%
    10:00 +27°C° 0.7 mm 2 mps 727 mmHg 81%
    11:00 +28°C° 0.7 mm 2 mps 727 mmHg 76%
    12:00 +29°C° 0 mm 2 mps 727 mmHg 72%
    13:00 +29°C° 0.9 mm 2 mps 726 mmHg 73%
    14:00 +29°C° 0.9 mm 2 mps 726 mmHg 73%
    15:00 +30°C° 0.9 mm 2 mps 725 mmHg 73%
    16:00 +28°C° 1.1 mm 2 mps 725 mmHg 79%
    17:00 +27°C° 1.1 mm 2 mps 725 mmHg 84%
    18:00 +26°C° 1.1 mm 2 mps 725 mmHg 89%
    19:00 +26°C° 1.8 mm 2 mps 726 mmHg 89%
    20:00 +25°C° 1.8 mm 2 mps 726 mmHg 90%
    21:00 +25°C° 1.8 mm 2 mps 727 mmHg 91%
    22:00 +24°C° 1.1 mm 2 mps 727 mmHg 92%
    23:00 +24°C° 1.1 mm 2 mps 727 mmHg 92%

    Tomorrow, 19 July, Thursday

    Time Temperature Precipitation Wind Pressure Humidity
    00:00 +24°C° 1.1 mm 1 mps 727 mmHg 93%
    01:00 +24°C° 1.3 mm 1 mps 727 mmHg 93%
    02:00 +24°C° 1.3 mm 2 mps 726 mmHg 93%
    03:00 +24°C° 1.3 mm 2 mps 726 mmHg 93%
    04:00 +24°C° 1.3 mm 2 mps 726 mmHg 93%
    05:00 +24°C° 1.3 mm 2 mps 726 mmHg 94%
    06:00 +24°C° 1.3 mm 2 mps 726 mmHg 94%
    07:00 +24°C° 0.8 mm 2 mps 727 mmHg 93%
    08:00 +25°C° 0.8 mm 2 mps 727 mmHg 92%
    09:00 +25°C° 0.8 mm 2 mps 727 mmHg 91%
    10:00 +26°C° 0.2 mm 3 mps 727 mmHg 86%
    11:00 +27°C° 0.2 mm 3 mps 727 mmHg 81%
    12:00 +28°C° 0.2 mm 3 mps 727 mmHg 76%
    13:00 +29°C° 0.6 mm 3 mps 726 mmHg 75%
    14:00 +29°C° 0.6 mm 3 mps 725 mmHg 75%
    15:00 +29°C° 0.6 mm 3 mps 724 mmHg 74%
    16:00 +28°C° 1.2 mm 2 mps 724 mmHg 79%
    17:00 +27°C° 1.2 mm 2 mps 724 mmHg 84%
    18:00 +26°C° 1.2 mm 1 mps 724 mmHg 89%
    19:00 +26°C° 0.5 mm 1 mps 725 mmHg 90%
    20:00 +25°C° 0.5 mm 1 mps 725 mmHg 91%
    21:00 +25°C° 0.5 mm 1 mps 726 mmHg 93%
    22:00 +24°C° 0.3 mm 1 mps 726 mmHg 93%
    23:00 +24°C° 0.3 mm 1 mps 726 mmHg 94%

    Day after tomorrow, 20 July, Friday

    Time Temperature Precipitation Wind Pressure Humidity
    00:00 +24°C° 0.3 mm 1 mps 726 mmHg 95%
    01:00 +24°C° 0.1 mm 1 mps 726 mmHg 95%
    02:00 +24°C° 0.1 mm 1 mps 725 mmHg 96%
    03:00 +23°C° 0.1 mm 1 mps 725 mmHg 97%
    04:00 +23°C° 0 mm 1 mps 725 mmHg 97%
    05:00 +23°C° 0 mm 1 mps 726 mmHg 97%
    06:00 +23°C° 0 mm 1 mps 726 mmHg 98%
    07:00 +24°C° 0.1 mm 2 mps 726 mmHg 94%
    08:00 +25°C° 0.1 mm 3 mps 727 mmHg 91%
    09:00 +25°C° 0.1 mm 3 mps 727 mmHg 87%
    10:00 +26°C° 0.7 mm 3 mps 727 mmHg 84%
    11:00 +27°C° 0.7 mm 3 mps 727 mmHg 81%
    12:00 +28°C° 0.7 mm 3 mps 727 mmHg 78%
    13:00 +28°C° 1 mm 3 mps 726 mmHg 79%
    14:00 +28°C° 1 mm 3 mps 725 mmHg 80%
    15:00 +28°C° 1 mm 3 mps 724 mmHg 82%
    16:00 +27°C° 0.9 mm 2 mps 724 mmHg 85%
    17:00 +26°C° 0.9 mm 2 mps 724 mmHg 88%
    18:00 +26°C° 0.9 mm 1 mps 725 mmHg 91%
    19:00 +25°C° 1.4 mm 1 mps 725 mmHg 92%
    20:00 +24°C° 1.4 mm 1 mps 726 mmHg 93%
    21:00 +24°C° 1.4 mm 2 mps 726 mmHg 94%
    22:00 +24°C° 0 mm 2 mps 726 mmHg 94%
    23:00 +23°C° 0 mm 2 mps 726 mmHg 95%

    21 July, Saturday

    Time Temperature Precipitation Wind Pressure Humidity
    00:00 +23°C° 0 mm 2 mps 726 mmHg 96%
    01:00 +23°C° 0 mm 2 mps 726 mmHg 96%
    02:00 +23°C° 0 mm 1 mps 725 mmHg 96%
    03:00 +23°C° 0 mm 1 mps 725 mmHg 96%
    04:00 +23°C° 0 mm 1 mps 726 mmHg 97%
    05:00 +23°C° 0 mm 1 mps 726 mmHg 97%
    06:00 +23°C° 0 mm 1 mps 726 mmHg 97%
    07:00 +24°C° 0 mm 2 mps 727 mmHg 93%
    08:00 +24°C° 0 mm 2 mps 727 mmHg 90%
    09:00 +25°C° 0 mm 3 mps 728 mmHg 86%
    10:00 +26°C° 0.2 mm 3 mps 728 mmHg 83%
    11:00 +27°C° 0.2 mm 3 mps 728 mmHg 79%
    12:00 +28°C° 0.2 mm 3 mps 728 mmHg 76%
    13:00 +28°C° 1 mm 3 mps 727 mmHg 77%
    14:00 +28°C° 1 mm 3 mps 726 mmHg 79%
    15:00 +28°C° 1 mm 2 mps 725 mmHg 80%
    16:00 +27°C° 0.7 mm 2 mps 725 mmHg 84%
    17:00 +26°C° 0.7 mm 2 mps 726 mmHg 88%
    18:00 +25°C° 0.7 mm 1 mps 726 mmHg 91%
    19:00 +25°C° 0.1 mm 1 mps 726 mmHg 92%
    20:00 +24°C° 0.1 mm 1 mps 727 mmHg 94%
    21:00 +24°C° 0.1 mm 1 mps 727 mmHg 95%
    22:00 +23°C° 0 mm 1 mps 727 mmHg 95%
    23:00 +23°C° 0 mm 1 mps 727 mmHg 95%

    22 July, Sunday

    Time Temperature Precipitation Wind Pressure Humidity
    00:00 +21°C° 0 mm 0 mps 727 mmHg 96%
    01:00 +23°C° 0 mm 1 mps 727 mmHg 96%
    02:00 +23°C° 0 mm 1 mps 726 mmHg 96%
    03:00 +22°C° 0 mm 1 mps 726 mmHg 96%
    04:00 +22°C° 0.1 mm 1 mps 726 mmHg 96%
    05:00 +22°C° 0.1 mm 1 mps 727 mmHg 95%
    06:00 +22°C° 0.1 mm 1 mps 727 mmHg 95%
    07:00 +24°C° 0.1 mm 1 mps 727 mmHg 92%
    08:00 +25°C° 0.1 mm 1 mps 728 mmHg 89%
    09:00 +26°C° 0.1 mm 2 mps 728 mmHg 86%
    10:00 +27°C° 0.2 mm 2 mps 728 mmHg 81%
    11:00 +28°C° 0.2 mm 2 mps 727 mmHg 76%
    12:00 +29°C° 0.2 mm 2 mps 727 mmHg 71%
    13:00 +29°C° 1 mm 2 mps 726 mmHg 72%
    14:00 +30°C° 1 mm 2 mps 726 mmHg 72%
    15:00 +30°C° 1 mm 1 mps 725 mmHg 72%
    16:00 +29°C° 0.7 mm 1 mps 725 mmHg 77%
    17:00 +28°C° 0.7 mm 1 mps 725 mmHg 81%
    18:00 +27°C° 0.7 mm 1 mps 725 mmHg 86%
    19:00 +26°C° 1 mm 1 mps 726 mmHg 87%
    20:00 +26°C° 1 mm 1 mps 726 mmHg 89%
    21:00 +23°C° 1 mm 0 mps 727 mmHg 90%
    22:00 +25°C° 0.1 mm 1 mps 727 mmHg 91%
    23:00 +25°C° 0.1 mm 1 mps 727 mmHg 91%

    23 July, Monday

    Time Temperature Precipitation Wind Pressure Humidity
    00:00 +24°C° 0.1 mm 1 mps 727 mmHg 92%
    01:00 +24°C° 0.1 mm 1 mps 726 mmHg 93%
    02:00 +24°C° 0.1 mm 1 mps 726 mmHg 94%
    03:00 +24°C° 0.1 mm 1 mps 725 mmHg 95%
    04:00 +23°C° 0 mm 1 mps 726 mmHg 95%
    05:00 +23°C° 0 mm 1 mps 726 mmHg 96%
    06:00 +23°C° 0 mm 1 mps 727 mmHg 96%
    07:00 +24°C° 0 mm 2 mps 727 mmHg 92%
    08:00 +26°C° 0 mm 2 mps 728 mmHg 87%
    09:00 +27°C° 0 mm 2 mps 728 mmHg 83%
    10:00 +28°C° 0.4 mm 2 mps 728 mmHg 79%
    11:00 +29°C° 0.4 mm 2 mps 727 mmHg 75%
    12:00 +30°C° 0.4 mm 2 mps 727 mmHg 72%
    13:00 +30°C° 0.3 mm 2 mps 726 mmHg 70%
    14:00 +30°C° 0.3 mm 2 mps 726 mmHg 69%
    15:00 +31°C° 0.3 mm 2 mps 725 mmHg 67%
    16:00 +30°C° 0.5 mm 1 mps 725 mmHg 73%
    17:00 +28°C° 0.5 mm 1 mps 725 mmHg 80%
    18:00 +27°C° 0.5 mm 1 mps 725 mmHg 86%
    19:00 +26°C° 0.7 mm 1 mps 726 mmHg 88%
    20:00 +26°C° 0.7 mm 1 mps 726 mmHg 91%
    21:00 +25°C° 0.7 mm 1 mps 727 mmHg 93%
    22:00 +25°C° 0.6 mm 1 mps 726 mmHg 94%
    23:00 +24°C° 0.6 mm 1 mps 726 mmHg 95%
    Show more